Regional Weather Roundup
Issued by NWS

Home | Current Version | Previous Version | Graphics & Text | Print | Product List | Glossary On
Versions: 1 2 3 4 5 6 7 8 9 10 11 12 13 14 15 16 17 18 19 20 21 22 23 24 25 26 27 28 29 30 31 32 33 34 35 36 37 38 39 40 41 42 43 44 45 46 47 48 49 50
000
ASUS43 KTOP 022059
RWRKS

WEATHER ROUNDUP FOR KANSAS
NATIONAL WEATHER SERVICE GOODLAND KS
400 PM CDT WED SEP 02 2015

NOTE:  "FAIR" INDICATES FEW OR NO CLOUDS BELOW 12,000 FEET WITH NO
SIGNIFICANT WEATHER AND/OR OBSTRUCTIONS TO VISIBILITY.

KSZ001>006-013>018-027>032-041>047-022200-
NORTHWEST KANSAS

CITY           SKY/WX    TMP DP  RH WIND       PRES   REMARKS
GOODLAND       FAIR      96  47  18 SW12      29.91F
HAYS           FAIR     100  57  23 S24G30    29.82F HX  99
HILL CITY      FAIR     100  57  23 SE15G25   29.83F HX  99
RUSSELL        FAIR     100  58  24 S22G32    29.82F HX  99
$$

KSZ061>065-074>080-084>089-022200-
SOUTHWEST KANSAS

CITY           SKY/WX    TMP DP  RH WIND       PRES   REMARKS
DODGE CITY     FAIR      99  50  19 SW21G28   29.88F HX  96
ELKHART          N/A     95  62  33 S13         N/A  HX  96
GARDEN CITY    FAIR      98  54  22 SW13G23   29.88F HX  96
GREAT BEND     FAIR     100  57  23 S28G33    29.83F HX  99
LIBERAL        FAIR      99  54  22 S22G29    29.92F HX  96
$$

KSZ066>073-081>083-090>101-022200-
SOUTHEAST KANSAS

CITY           SKY/WX    TMP DP  RH WIND       PRES   REMARKS
CHANUTE        FAIR      87  69  54 S17       29.98F
COFFEYVILLE    FAIR      87  72  60 S10G20    29.98F
HUTCHINSON     FAIR      96  60  30 S24G32    29.89F HX  96
NEWTON         FAIR      93  63  36 S20G28    29.95F
PARSONS        FAIR      87  71  58 S12G20    29.99F
WICHITA INTL   FAIR      94  63  35 S14G30    29.91F HX  95
WICHITA JABRA  FAIR      91  66  43 S20G26    29.92F
WINFIELD       FAIR      95  64  35 S17       29.95F HX  97
$$

KSZ007>012-019>026-033>040-048>060-102>105-022200-
NORTHEAST KANSAS

CITY           SKY/WX    TMP DP  RH WIND       PRES   REMARKS
CONCORDIA      FAIR      95  63  34 S21       29.85F HX  96
EMPORIA        FAIR      90  66  45 S22G29    29.93F
LAWRENCE       FAIR      90  68  48 S14G23    29.93F
MANHATTAN      FAIR      95  64  35 S20G26    29.87F HX  97
OLATHE IND     FAIR      88  69  53 S15       29.97F
OLATHE EXE     FAIR      85  69  58 S18G25    29.96F
SALINA         FAIR      97  62  31 S18G35    29.86F HX  98
TOPEKA BILLARD FAIR      90  67  46 S16G25    29.92F
TOPEKA FORBES  FAIR      91  68  46 S16G24    29.92F HX  95
$$



USA.gov is the U.S. government's official web portal to all federal, state and local government web resources and services.